CW7283 Weather Reports


time (UTC)temp
F
wind
direction
speed
knots
gust
knots
rain 1hr
in
rain 24hr
in
rain mn
in
humidity
%
barometer
mb
20260509150351 49 279 0.9 6.1 0.00 0.00 0.00 75 1015.5
20260509144845 50 14 0.9 4.3 0.00 0.00 0.00 71 1015.5
20260509143350 51 271 0.9 6.1 0.00 0.00 0.00 69 1015.2
20260509141838 52 299 1.7 5.2 0.00 0.00 0.00 67 1014.6
20260509140344 52 286 0.0 5.2 0.00 0.00 0.00 67 1014.2
20260509134838 51 310 0.0 1.7 0.00 0.00 0.00 67 1014.2
20260509133339 51 245 0.0 1.7 0.00 0.00 0.00 66 1013.9
20260509131847 50 275 0.0 1.7 0.00 0.00 0.00 67 1013.6
20260509130346 50 252 0.0 1.7 0.00 0.00 0.00 68 1013.6
20260509124842 50 325 0.0 1.7 0.00 0.00 0.00 69 1013.5
20260509123338 50 222 0.0 1.7 0.00 0.00 0.00 69 1013.3
20260509121837 50 355 0.0 1.7 0.00 0.00 0.00 68 1013.1
20260509120328 50 273 0.0 2.6 0.00 0.00 0.00 67 1013.0
20260509114828 50 298 0.9 3.5 0.00 0.00 0.00 67 1012.9
20260509113344 50 305 0.0 2.6 0.00 0.00 0.00 67 1012.6
20260509111824 50 334 0.0 1.7 0.00 0.00 0.00 68 1012.4
20260509110342 51 307 0.0 1.7 0.00 0.00 0.00 66 1012.4
20260509104836 51 296 0.9 4.3 0.00 0.01 0.00 65 1012.3
20260509103326 51 360 1.7 5.2 0.00 0.01 0.00 66 1012.0
20260509101826 51 296 1.7 5.2 0.00 0.01 0.00 66 1012.0
20260509100331 51 315 0.9 7.8 0.00 0.01 0.00 65 1012.0
20260509094842 52 321 2.6 7.8 0.00 0.01 0.00 63 1011.7
20260509093325 52 298 0.0 6.1 0.00 0.01 0.00 61 1011.7
20260509091841 54 9 0.9 9.6 0.00 0.01 0.00 56 1011.4
20260509090332 55 252 1.7 6.1 0.00 0.01 0.00 52 1010.8
20260509084833 56 330 0.9 3.5 0.00 0.01 0.00 51 1010.7
20260509083337 55 318 0.9 3.5 0.00 0.01 0.00 51 1010.5
20260509081825 55 360 0.9 2.6 0.00 0.01 0.00 53 1010.1
20260509080342 56 254 0.0 1.7 0.00 0.01 0.00 49 1009.8
20260509074850 57 278 0.0 1.7 0.00 0.01 0.00 48 1009.6
20260509073341 56 348 0.9 7.0 0.00 0.01 0.00 49 1009.6
20260509071856 55 273 0.0 1.7 0.00 0.01 0.00 54 1009.5
20260509070330 54 299 0.0 2.6 0.00 0.01 0.00 55 1009.7
20260509064828 54 244 0.0 0.0 0.00 0.01 0.00 58 1009.5
20260509063401 53 227 0.0 1.7 0.00 0.01 0.00 60 1009.5
20260509061840 51 219 0.0 0.0 0.00 0.01 0.00 64 1009.5
20260509060331 51 71 0.0 0.0 0.00 0.01 0.00 67 1009.4
20260509054828 50 142 0.0 0.0 0.00 0.01 0.01 69 1009.4
20260509053402 51 142 0.0 0.0 0.00 0.01 0.01 70 1009.2
20260509051826 51 155 0.0 0.0 0.00 0.01 0.01 70 1009.1
20260509050340 51 155 0.0 0.0 0.00 0.01 0.01 69 1009.0
20260509044853 52 196 0.0 0.0 0.00 0.01 0.01 68 1009.0
20260509043331 52 196 0.0 0.0 0.00 0.01 0.01 66 1009.1
20260509041849 52 196 0.0 0.0 0.00 0.01 0.01 66 1009.2
20260509040333 52 210 0.0 0.0 0.00 0.01 0.01 66 1009.2
20260509034850 52 234 0.0 1.7 0.00 0.01 0.01 66 1009.1
20260509033347 53 228 0.0 1.7 0.00 0.01 0.01 65 1009.0
20260509031834 54 210 0.0 1.7 0.00 0.01 0.01 63 1008.9
20260509030404 55 223 0.0 1.7 0.00 0.01 0.01 62 1008.9
20260509024830 57 209 0.0 1.7 0.00 0.02 0.01 60 1008.9
20260509023347 58 221 0.0 1.7 0.00 0.02 0.01 57 1008.8
20260509021844 60 235 0.0 1.7 0.00 0.02 0.01 53 1008.8
20260509020329 62 219 0.0 0.0 0.00 0.02 0.01 47 1008.5
20260509014909 63 216 0.0 0.0 0.00 0.02 0.01 47 1008.6
20260509013358 65 232 0.0 1.7 0.00 0.02 0.01 45 1008.7
20260509011848 66 268 0.0 1.7 0.00 0.02 0.01 42 1008.7
20260509010345 66 195 0.0 1.7 0.00 0.02 0.01 41 1008.8
20260509004836 67 291 0.0 1.7 0.00 0.02 0.01 41 1008.9
20260509003339 68 229 0.0 1.7 0.00 0.02 0.01 40 1008.9
20260509001833 69 277 0.0 1.7 0.00 0.02 0.01 38 1009.0
20260509000326 70 299 0.0 1.7 0.00 0.02 0.01 37 1009.2
20260508234832 70 309 0.0 1.7 0.00 0.02 0.01 38 1009.4
20260508233345 69 237 0.0 2.6 0.00 0.02 0.01 37 1009.5
20260508231843 69 355 0.0 1.7 0.00 0.02 0.01 38 1009.5
20260508230333 70 266 0.0 2.6 0.00 0.02 0.01 37 1009.7
20260508224835 69 200 0.0 1.7 0.00 0.02 0.01 40 1010.0
20260508223332 69 5 0.0 2.6 0.00 0.02 0.01 40 1010.1
20260508221834 69 290 0.0 2.6 0.00 0.02 0.01 40 1010.1
20260508220338 70 140 0.0 1.7 0.00 0.02 0.01 40 1010.5
20260508214840 69 288 0.0 1.7 0.00 0.02 0.01 40 1010.6
20260508213331 68 46 0.0 1.7 0.00 0.02 0.01 42 1010.7
20260508211832 68 203 0.0 2.6 0.00 0.02 0.01 39 1011.1
20260508210356 67 190 0.9 2.6 0.00 0.02 0.01 40 1011.2
20260508204835 68 32 0.0 2.6 0.00 0.02 0.01 40 1011.2
20260508203329 67 207 0.0 1.7 0.00 0.02 0.01 39 1011.4
20260508201852 67 11 0.0 4.3 0.00 0.02 0.01 39 1011.4
20260508200337 68 204 0.0 1.7 0.00 0.02 0.01 38 1011.6
20260508194835 66 324 0.0 1.7 0.00 0.02 0.01 40 1011.8
20260508193342 66 5 0.9 3.5 0.00 0.02 0.01 38 1011.9
20260508191841 66 19 0.9 2.6 0.00 0.02 0.01 37 1012.0
20260508190330 66 14 0.0 1.7 0.00 0.02 0.01 39 1012.2
20260508184835 65 5 0.0 2.6 0.00 0.03 0.01 35 1012.4
20260508183338 65 109 0.0 2.6 0.00 0.03 0.01 37 1012.5
20260508181907 64 277 0.9 2.6 0.00 0.03 0.01 40 1012.7
20260508180342 64 14 0.9 3.5 0.00 0.03 0.01 41 1013.0
20260508174831 64 309 0.0 2.6 0.00 0.04 0.01 39 1013.0
20260508173329 63 301 0.9 3.5 0.00 0.04 0.01 40 1013.1
20260508171858 62 11 0.9 5.2 0.00 0.04 0.01 45 1013.4
20260508170405 62 29 0.9 2.6 0.00 0.04 0.01 46 1013.4
20260508164846 61 307 0.9 4.3 0.00 0.07 0.01 44 1013.6
20260508163328 61 40 0.9 3.5 0.00 0.07 0.01 47 1013.6
20260508161840 60 342 0.9 3.5 0.00 0.07 0.01 48 1013.7
20260508160353 60 316 0.9 3.5 0.00 0.07 0.01 51 1013.8
20260508154831 59 34 1.7 3.5 0.00 0.08 0.01 51 1013.9
20260508153327 58 29 0.0 1.7 0.00 0.08 0.01 56 1014.0
20260508151845 56 280 0.0 2.6 0.00 0.08 0.01 54 1014.1